Flag for Germany Weather past 2 weeks in Offenburg, Baden-Württemberg, Germany

Now
58 °F

Overcast.


Feels Like: 58 °F
Forecast: 45 / 66 °F
Wind: 2 mph from South

Location: Lahr

Current Time: Aug 23, 2014 at 2:14:33 AM

Latest Report: Aug 23, 2014 at 2:00 AM


Visibility: 34 mi

Pressure: 29.99 "Hg

Humidity: 72%

Dew point: 50 °F

Location of OffenburgLocation

Historic Weather in Offenburg — Graph

°F

Offenburg temperature yesterday

Maximum temperature yesterday: 71 °F (at 6:00 PM)
Minimum temperature yesterday: 51 °F (at 4:00 AM)
Average temperature yesterday: 60 °F

Past Weeks' High & Low Weather Summary

 TemperatureHumidityPressure
High83 °F (Aug 10, 5:00 PM)100% (Aug 10, 5:00 AM)30.18 "Hg (Aug 10, 5:00 AM)
Low49 °F (Aug 21, 4:00 AM)43% (Aug 21, 5:00 PM)29.67 "Hg (Aug 13, 3:00 PM)
Average63 °F76%29.95 "Hg
* Reported Aug 8 1:00 AM — Aug 23 1:00 AM, Offenburg, Weather by CustomWeather, © 2014

Note: Actual official high and low records may vary slightly from our data, if they occured in-between our weather recording intervals... More about our weather records

Advertising

Offenburg weather history for previous 24 hours

 ConditionsComfort  
Time TempWeatherWind HumidityBarometerVisibility
1:00 AM
Aug 23
56 °FOvercast.2 mph80%29.99 "Hg40 mi
12:00 AM55 °FPassing clouds.2 mph80%29.99 "Hg31 mi
11:00 PM
Aug 22
60 °FClear.3 mph65%29.99 "Hg43 mi
10:00 PM60 °FClear.3 mph69%29.98 "Hg43 mi
9:00 PM63 °FPassing clouds.2 mph58%29.97 "Hg43 mi
8:00 PM67 °FPassing clouds.2 mph54%29.95 "Hg43 mi
7:00 PM69 °FPassing clouds.5 mph48%29.95 "Hg43 mi
6:00 PM71 °FScattered clouds.5 mph43%29.94 "Hg43 mi
5:00 PM71 °FScattered clouds.5 mph43%29.95 "Hg43 mi
4:00 PM70 °FPartly sunny.3 mph44%29.96 "Hg43 mi
3:00 PM71 °FPartly sunny.3 mph46%29.97 "Hg47 mi
2:00 PM68 °FPartly sunny.3 mph48%29.99 "Hg47 mi
1:00 PM67 °FPartly sunny.3 mph48%30.00 "Hg47 mi
12:00 PM66 °FOvercast.3 mph61%30.01 "Hg47 mi
11:00 AM63 °FOvercast.3 mph68%30.02 "Hg47 mi
10:00 AM58 °FOvercast.1 mph83%30.02 "Hg47 mi
9:00 AM55 °FOvercast.2 mph89%30.03 "Hg47 mi
8:00 AM54 °FOvercast.2 mph92%30.03 "Hg47 mi
7:00 AM51 °FOvercast.1 mph97%30.03 "Hg37 mi
6:00 AM51 °FPassing clouds.1 mph95%30.02 "Hg31 mi
5:00 AM52 °FOvercast.3 mph95%30.03 "Hg19 mi
4:00 AM51 °FOvercast.1 mph98%30.04 "Hg12 mi
3:00 AM53 °FOvercast.1 mph94%30.05 "Hg19 mi
2:00 AM51 °FOvercast.1 mph98%30.05 "Hg18 mi
Weather by CustomWeather, © 2014

See weather overviewHow to use our weather pages